[[{"header":{"parameterUnit":"m.s-1","parameterCategory":1,"la1":30.2991,"la2":30.254,"lo1":-89.0895,"lo2":-89.0444,"dy":0.0017,"dx":0.0017,"nx":28,"ny":28,"refTime":"2024-07-22T09:00:00:Z","depth":0,"parameterNumber":2,"parameterNumberName":"U-component_of_WINDS"},"data":[0,0,0,0,0,0,0,0,0,0,0,0,0,0,0,0,0,0,0,0,0,0,0,0,0,0,0,0,0,0,0,0,0,0,0,0,0,0,0,0,0,0,0,0,0,0,0,0,0,0,0,0,0,0,0,0,0,0,0.5303,0.5302,0,0.5183,0.5181,0.518,0.5042,0.504,0.5038,0.5036,0.4915,0.4914,0.4913,0,0,0,0,0,0,0,0,0,0,0,0,0,0.5416,0.5414,0.5304,0.5302,0.53,0.5183,0.5181,0.5179,0.5042,0.504,0.5037,0.5035,0.4916,0.4914,0.4913,0,0,0,0,0,0,0,0,0,0,0,0,0,0.5338,0.5414,0.5304,0.5218,0.5209,0.5183,0.5181,0.5179,0.5043,0.504,0.5037,0.5034,0.4916,0.4914,0.4912,0.4963,0,0,0.4907,0.4906,0,0,0,0,0,0,0,0,0.5343,0.5334,0.5232,0.5224,0.5214,0.5124,0.5176,0.5107,0.5044,0.5106,0.5036,0.5032,0.4987,0.4979,0.4964,0.4957,0.4952,0.4906,0.4905,0.4904,0.4904,0,0,0,0,0,0,0,0.5348,0.5339,0.5256,0.5231,0.5219,0.5185,0.5171,0.5162,0.5066,0.51,0.509,0.5077,0.4982,0.4966,0.496,0.495,0.4906,0.4905,0.4903,0.4903,0.4975,0.4977,0,0,0,0,0,0,0.5366,0.5344,0.5259,0.5252,0.5272,0.5186,0.517,0.5156,0.5065,0.5048,0.508,0.5071,0.4971,0.4962,0.4955,0.5006,0.4904,0.4903,0.4901,0.4972,0.4975,0.4979,0,0,0,0,0,0,0.5369,0.536,0.5264,0.5295,0.528,0.5187,0.5173,0.5155,0.5139,0.505,0.5032,0.5082,0.4968,0.4958,0.4961,0.5,0.4902,0.49,0.4968,0.4973,0.4977,0.5109,0,0,0,0,0,0,0.5373,0.5362,0.5381,0.5297,0.5279,0.5273,0.5175,0.5155,0.5136,0.5123,0.5047,0.5031,0.4965,0.4964,0.4959,0.4995,0.4898,0.4964,0.497,0.4975,0.5101,0.5118,0.5132,0,0,0,0,0,0.5378,0.5424,0.5382,0.5373,0.53,0.5275,0.5265,0.5187,0.514,0.5157,0.5099,0.5034,0.4996,0.4966,0.4958,0.4995,0.4961,0.4968,0.4975,0.5094,0.5114,0.5132,0,0,0,0,0,0,0.5517,0.5412,0.5364,0.5384,0.534,0.5252,0.5272,0.5212,0.518,0.517,0.5075,0.5059,0.5072,0.5034,0.5002,0.5037,0.4969,0.4975,0.5062,0.5081,0.5096,0.5105,0.4897,0,0,0,0,0,0.555,0.5538,0.5446,0.5473,0.5453,0.5366,0.5353,0.5296,0.5246,0.5227,0.5169,0.5124,0.5101,0.5089,0.5063,0.5094,0.5074,0.5115,0.5131,0.5144,0.515,0.5161,0.5178,0.5001,0.5001,0.5001,0,0,0.5618,0.5559,0.5557,0.5499,0.5458,0.5447,0.5352,0.5345,0.5336,0.5226,0.5224,0.518,0.5123,0.514,0.5144,0.5108,0.5194,0.5153,0.5164,0.5163,0.517,0.5187,0.5202,0.5006,0.5005,0.5004,0,0,0.5736,0.5691,0.5707,0.5667,0.5604,0.5546,0.555,0.547,0.5436,0.5433,0.5349,0.5337,0.5301,0.5262,0.5238,0.5339,0.5277,0.5333,0.5415,0.5427,0.544,0.5452,0.5487,0.55,0.534,0.534,0.534,0,0.583,0.581,0.5723,0.5721,0.5697,0.5594,0.5609,0.5575,0.5508,0.5494,0.5454,0.5404,0.5358,0.5363,0.5387,0.5372,0.5372,0.5342,0.5445,0.5456,0.5466,0.5498,0.5511,0.5347,0.5346,0.5346,0.5345,0,0.5926,0.5914,0.5934,0.587,0.5848,0.5855,0.5769,0.5757,0.5702,0.5648,0.5644,0.5585,0.5545,0.5541,0.5488,0.5538,0.5517,0.5463,0.5393,0.5492,0.552,0.5531,0.5357,0.5355,0.5353,0.5351,0,0,0.6132,0.6017,0.6026,0.5994,0.5916,0.5904,0.5905,0.5864,0.5855,0.5812,0.581,0.578,0.5728,0.5701,0.5641,0.5652,0.5733,0.5595,0.5592,0.5622,0.5782,0.5823,0.5839,0.5691,0.5693,0.5694,0.5786,0,0.6235,0.623,0.6151,0.6168,0.6154,0.6055,0.6055,0.6007,0.5956,0.5937,0.588,0.5859,0.5793,0.5775,0.5781,0.5722,0.5764,0.5714,0.5687,0.5688,0.5705,0.5854,0.5898,0.5988,0.5797,0.5799,0.58,0,0.6357,0.6318,0.6334,0.6252,0.6243,0.6245,0.6199,0.6182,0.6125,0.6087,0.6055,0.5987,0.5981,0.5915,0.5905,0.5873,0.5857,0.5826,0.5827,0.5822,0.575,0.5852,0.6015,0.6029,0.5817,0.5815,0.5814,0,0.6503,0.6455,0.6457,0.6434,0.6339,0.6342,0.6303,0.6243,0.6222,0.6182,0.6167,0.6128,0.6107,0.6078,0.6,0.5959,0.5999,0.5927,0.5966,0.5969,0.598,0.598,0.6143,0.5971,0.597,0.597,0.597,0,0.6628,0.6641,0.6521,0.6523,0.6534,0.6442,0.6456,0.6407,0.6353,0.6343,0.6255,0.6247,0.6146,0.6126,0.6066,0.6066,0.6057,0.6026,0.601,0.6034,0.6038,0.6022,0.6014,0.5974,0.5973,0.5972,0.5972,0,0.6794,0.6715,0.671,0.662,0.6597,0.6609,0.6532,0.6529,0.6471,0.6459,0.6451,0.636,0.6332,0.6252,0.6204,0.6163,0.6181,0.6151,0.62,0.619,0.6234,0.6231,0.6392,0.6407,0.6227,0.6229,0.623,0,0.6878,0.6886,0.6795,0.6781,0.6745,0.6725,0.6702,0.6611,0.6591,0.6525,0.653,0.6495,0.6462,0.6422,0.6352,0.6314,0.6282,0.6341,0.6276,0.6299,0.6282,0.6282,0.6282,0.6356,0.6358,0.636,0.6361,0,0.7036,0.6996,0.6967,0.6923,0.6898,0.686,0.6817,0.681,0.6708,0.669,0.666,0.6634,0.6584,0.655,0.65,0.6459,0.6394,0.6382,0.6389,0.6414,0.6442,0.6426,0.6238,0.6379,0.6377,0.6376,0.6375,0.6374,0.7163,0.7164,0.71,0.7069,0.7027,0.6987,0.6979,0.6919,0.6892,0.6843,0.6791,0.6766,0.6706,0.6632,0.6596,0.6575,0.654,0.6551,0.6553,0.6557,0.6568,0.6445,0.6565,0.6565,0.6564,0.6564,0.6563,0,0.7316,0.7269,0.7241,0.7182,0.7158,0.7096,0.7044,0.7028,0.7007,0.6956,0.6924,0.6888,0.6853,0.678,0.6738,0.6735,0.6704,0.6727,0.6727,0.6718,0.6602,0.6599,0.6753,0.6753,0.6753,0.6753,0.6753,0.6753,0.7392,0.739,0.7341,0.7316,0.7268,0.7242,0.7218,0.7181,0.7139,0.7102,0.7072,0.7024,0.6963,0.6916,0.6881,0.686,0.6848,0.6882,0.6852,0.6745,0.6727,0.6709,0.6706,0.688,0.6881,0.6969,0.697,0.697]},{"header":{"parameterUnit":"m.s-1","parameterCategory":1,"la1":30.2991,"la2":30.254,"lo1":-89.0895,"lo2":-89.0444,"dy":0.0017,"dx":0.0017,"nx":28,"ny":28,"refTime":"2024-07-22T09:00:00:Z","depth":0,"parameterNumber":3,"parameterNumberName":"V-component_of_WINDS"},"data":[0,0,0,0,0,0,0,0,0,0,0,0,0,0,0,0,0,0,0,0,0,0,0,0,0,0,0,0,0,0,0,0,0,0,0,0,0,0,0,0,0,0,0,0,0,0,0,0,0,0,0,0,0,0,0,0,0,0,3.1918,3.1919,0,3.1987,3.1988,3.1989,3.1925,3.1922,3.192,3.1917,3.1982,3.1986,3.199,0,0,0,0,0,0,0,0,0,0,0,0,0,3.1723,3.1727,3.1918,3.1919,3.192,3.1987,3.1988,3.1989,3.1925,3.1922,3.1919,3.1916,3.1981,3.1986,3.1991,0,0,0,0,0,0,0,0,0,0,0,0,0,3.1801,3.1728,3.1918,3.1896,3.1895,3.1987,3.1988,3.1989,3.1926,3.1922,3.1918,3.1915,3.1979,3.1985,3.1991,3.2106,0,0,3.201,3.2013,0,0,0,0,0,0,0,0,3.1797,3.1808,3.1898,3.1898,3.1897,3.1944,3.1943,3.2028,3.1927,3.1914,3.1917,3.1913,3.1972,3.1979,3.2,3.2109,3.2112,3.2011,3.2015,3.2017,3.2019,0,0,0,0,0,0,0,3.1792,3.1805,3.1945,3.19,3.1899,3.1881,3.1887,3.1959,3.1963,3.1915,3.191,3.192,3.1971,3.1994,3.2001,3.2113,3.2011,3.2016,3.202,3.2022,3.2318,3.2322,0,0,0,0,0,0,3.1789,3.1801,3.1943,3.1947,3.1836,3.1887,3.1895,3.1932,3.1963,3.1964,3.1923,3.1917,3.1985,3.1994,3.2003,3.2138,3.2017,3.2023,3.2026,3.2314,3.2319,3.2324,0,0,0,0,0,0,3.1785,3.1803,3.194,3.1873,3.1889,3.1895,3.1937,3.1936,3.1959,3.1969,3.1969,3.1947,3.1983,3.1994,3.2081,3.2139,3.2026,3.2031,3.2309,3.2316,3.2321,3.241,0,0,0,0,0,0,3.178,3.1802,3.1847,3.1875,3.1893,3.2019,3.1941,3.194,3.1971,3.1963,3.1991,3.1992,3.1981,3.2072,3.2087,3.2146,3.2036,3.2304,3.2312,3.2319,3.2402,3.2419,3.2433,0,0,0,0,0,3.1773,3.1868,3.185,3.1867,3.195,3.2023,3.2033,3.202,3.1976,3.202,3.2026,3.1991,3.2131,3.2082,3.2098,3.2159,3.23,3.231,3.2319,3.2395,3.2415,3.2432,0,0,0,0,0,0,3.1845,3.1872,3.1851,3.1958,3.1989,3.2012,3.2068,3.2043,3.2085,3.2076,3.2056,3.2063,3.2154,3.2165,3.211,3.2271,3.2208,3.2221,3.226,3.228,3.2295,3.2289,3.2041,0,0,0,0,0,3.1874,3.1933,3.1952,3.2045,3.2061,3.2062,3.2093,3.2081,3.2111,3.2123,3.2136,3.2164,3.2214,3.2248,3.2295,3.2404,3.2407,3.2454,3.2469,3.2482,3.2493,3.2549,3.2569,3.2354,3.2354,3.2354,0,0,3.1933,3.1955,3.1993,3.206,3.2082,3.2141,3.2073,3.2139,3.2182,3.2132,3.2215,3.2226,3.2256,3.2354,3.2398,3.2366,3.2553,3.2494,3.2504,3.2508,3.2561,3.2581,3.2599,3.2361,3.236,3.2358,0,0,3.2071,3.2095,3.2173,3.2198,3.2233,3.2233,3.2252,3.2279,3.2284,3.2368,3.2331,3.2381,3.2469,3.2492,3.2515,3.2661,3.2629,3.2677,3.2756,3.2812,3.2828,3.2843,3.2893,3.2912,3.2688,3.2688,3.2688,0,3.2139,3.2229,3.2216,3.2285,3.2314,3.2274,3.2352,3.2376,3.2424,3.2444,3.2409,3.2517,3.2535,3.2637,3.2673,3.2694,3.2712,3.2672,3.2828,3.2842,3.2856,3.2903,3.2922,3.2693,3.2693,3.2692,3.2692,0,3.231,3.2373,3.2432,3.2482,3.2518,3.2591,3.2587,3.2624,3.2609,3.2612,3.2696,3.2716,3.2766,3.2789,3.2774,3.2889,3.2868,3.2831,3.2766,3.2882,3.2926,3.2944,3.2701,3.2699,3.2698,3.2696,0,0,3.2494,3.2536,3.2558,3.2579,3.2615,3.2662,3.2733,3.2783,3.2815,3.2849,3.2906,3.2981,3.2947,3.2973,3.296,3.3009,3.3121,3.2965,3.2965,3.2991,3.3245,3.3272,3.3293,3.3101,3.3104,3.3107,3.3242,0,3.2631,3.2755,3.2746,3.2862,3.2919,3.2882,3.2942,3.297,3.2975,3.3021,3.3025,3.3078,3.303,3.3045,3.3092,3.3097,3.3171,3.3088,3.315,3.3153,3.3142,3.3317,3.3345,3.3472,3.3259,3.3262,3.3265,0,3.2808,3.285,3.2973,3.3,3.3023,3.3078,3.3123,3.3169,3.3198,3.3198,3.3228,3.3207,3.3275,3.3211,3.3303,3.3246,3.3272,3.3278,3.3283,3.3286,3.3214,3.3323,3.3512,3.353,3.3292,3.329,3.3288,0,3.2926,3.3014,3.3099,3.3118,3.3152,3.3192,3.3207,3.3233,3.3264,3.3303,3.3322,3.3367,3.3392,3.3426,3.3417,3.3372,3.351,3.3446,3.351,3.351,3.3539,3.3537,3.3733,3.3559,3.3559,3.3558,3.3558,0,3.3079,3.3155,3.3152,3.3204,3.3287,3.3275,3.3357,3.3367,3.3391,3.3442,3.3412,3.346,3.3446,3.3493,3.3486,3.3562,3.3574,3.3573,3.357,3.3575,3.3575,3.359,3.358,3.3564,3.3562,3.3561,3.3561,0,3.3225,3.3227,3.3316,3.3342,3.335,3.341,3.343,3.3477,3.348,3.3545,3.3559,3.3563,3.3616,3.3611,3.3671,3.3666,3.376,3.3747,3.375,3.3747,3.381,3.3803,3.402,3.4047,3.3858,3.386,3.3862,0,3.3322,3.338,3.3412,3.3445,3.3464,3.3518,3.3549,3.3539,3.3572,3.361,3.3652,3.3704,3.3744,3.3831,3.3837,3.3882,3.3869,3.3942,3.3875,3.3878,3.3867,3.3863,3.3868,3.3954,3.3957,3.3958,3.396,0,3.3492,3.349,3.3538,3.3586,3.3625,3.3662,3.3696,3.3724,3.3717,3.3755,3.3811,3.3843,3.3904,3.3954,3.3997,3.401,3.3983,3.3981,3.3998,3.4002,3.4001,3.4,3.3784,3.3976,3.3974,3.3973,3.3972,3.3971,3.3615,3.3664,3.3694,3.3748,3.3772,3.3804,3.385,3.3859,3.3906,3.3957,3.3947,3.4009,3.4035,3.409,3.4108,3.4155,3.4128,3.4153,3.4158,3.4164,3.4171,3.3996,3.4162,3.4162,3.4162,3.4161,3.4161,0,3.3781,3.3799,3.3849,3.3898,3.394,3.3914,3.3949,3.3985,3.4041,3.4069,3.411,3.4173,3.4221,3.4232,3.4278,3.4313,3.4302,3.4325,3.4321,3.4324,3.4193,3.4173,3.4334,3.4334,3.4334,3.4334,3.4334,3.4334,3.3873,3.3954,3.3956,3.4048,3.4064,3.4127,3.4149,3.4177,3.42,3.4272,3.4313,3.4321,3.4341,3.4388,3.4431,3.4433,3.445,3.4478,3.4475,3.4351,3.4334,3.4317,3.4298,3.4483,3.4483,3.4602,3.4603,3.4604]}]]